H1 CPF 2 NER 2025 9 12 9 255 01 glonass132 H2 1401201 9132 39620 2025 9 12 0 0 0 2025 9 15 23 45 0 900 1 1 0 0 0 1 H9 10 0 60930 0.00000 0 10062178.653 -14719459.171 -18206449.614 10 0 60930 900.00000 0 11838888.004 -15882543.003 -16029909.805 10 0 60930 1800.00000 0 13284660.014 -17015933.055 -13541085.986 10 0 60930 2700.00000 0 14385462.044 -18057964.048 -10788455.990 10 0 60930 3600.00000 0 15140599.269 -18947412.348 -7825652.759 10 0 60930 4500.00000 0 15562495.218 -19626169.707 -4710409.509 10 0 60930 5400.00000 0 15675926.062 -20041802.966 -1503423.231 10 0 60930 6300.00000 0 15516742.508 -20149890.360 1732840.159 10 0 60930 7200.00000 0 15130135.169 -19916034.630 4935374.343 10 0 60930 8100.00000 0 14568518.691 -19317467.134 8041869.558 10 0 60930 9000.00000 0 13889126.055 -18344174.771 10991932.663 10 0 60930 9900.00000 0 13151416.512 -16999502.104 13728265.616 10 0 60930 10800.00000 0 12414408.123 -15300203.554 16197778.897 10 0 60930 11700.00000 0 11734048.485 -13275943.899 18352618.148 10 0 60930 12600.00000 0 11160734.992 -10968268.647 20151084.465 10 0 60930 13500.00000 0 10737089.031 -8429087.877 21558431.312 10 0 60930 14400.00000 0 10496077.157 -5718737.248 22547523.806 10 0 60930 15300.00000 0 10459557.284 -2903697.082 23099349.002 10 0 60930 16200.00000 0 10637309.720 -54064.066 23203368.803 10 0 60930 17100.00000 0 11026592.485 2759120.140 22857710.104 10 0 60930 18000.00000 0 11612238.431 5466573.719 22069189.692 10 0 60930 18900.00000 0 12367289.254 8003402.299 20853174.349 10 0 60930 19800.00000 0 13254139.408 10311542.254 19233279.338 10 0 60930 20700.00000 0 14226141.915 12341920.254 17240911.228 10 0 60930 21600.00000 0 15229609.158 14056241.411 14914663.577 10 0 60930 22500.00000 0 16206125.441 15428333.539 12299576.540 10 0 60930 23400.00000 0 17095075.162 16444993.108 9446273.852 10 0 60930 24300.00000 0 17836281.404 17106298.909 6409992.887 10 0 60930 25200.00000 0 18372644.927 17425381.174 3249525.508 10 0 60930 26100.00000 0 18652673.218 17427656.329 26089.294 10 0 60930 27000.00000 0 18632793.461 17149559.610 -3197849.865 10 0 60930 27900.00000 0 18279351.942 16636828.657 -6359781.618 10 0 60930 28800.00000 0 17570215.072 15942409.950 -9398358.542 10 0 60930 29700.00000 0 16495903.585 15124075.823 -12254583.895 10 0 60930 30600.00000 0 15060210.627 14241852.058 -14872956.793 10 0 60930 31500.00000 0 13280275.949 13355364.207 -17202552.434 10 0 60930 32400.00000 0 11186110.955 12521214.371 -19198016.212 10 0 60930 33300.00000 0 8819592.316 11790499.177 -20820452.109 10 0 60930 34200.00000 0 6232964.149 11206573.877 -22038187.646 10 0 60930 35100.00000 0 3486909.387 10803157.437 -22827400.083 10 0 60930 36000.00000 0 648269.117 10602859.227 -23172591.060 10 0 60930 36900.00000 0 -2212496.281 10616190.376 -23066899.798 10 0 60930 37800.00000 0 -5023999.385 10841102.449 -22512247.994 10 0 60930 38700.00000 0 -7716659.770 11263073.943 -21519312.784 10 0 60930 39600.00000 0 -10225366.122 11855741.871 -20107327.480 10 0 60930 40500.00000 0 -12491955.420 12582052.494 -18303713.205 10 0 60930 41400.00000 0 -14467405.600 13395883.105 -16143547.948 10 0 60930 42300.00000 0 -16113649.868 14244066.429 -13668882.998 10 0 60930 43200.00000 0 -17404936.721 15068731.794 -10927919.938 10 0 60930 44100.00000 0 -18328678.883 15809863.418 -7974064.446 10 0 60930 45000.00000 0 -18885756.029 16407966.589 -4864875.956 10 0 60930 45900.00000 0 -19090259.527 16806727.694 -1660934.555 10 0 60930 46800.00000 0 -18968691.290 16955554.269 1575351.631 10 0 60930 47700.00000 0 -18558652.151 16811886.304 4780973.953 10 0 60930 48600.00000 0 -17907077.051 16343180.054 7893560.375 10 0 60930 49500.00000 0 -17068093.484 15528479.714 10852596.947 10 0 60930 50400.00000 0 -16100595.498 14359510.247 13600608.832 10 0 60930 51300.00000 0 -15065637.258 12841245.173 16084277.359 10 0 60930 52200.00000 0 -14023757.285 10991925.664 18255471.308 10 0 60930 53100.00000 0 -13032346.768 8842530.476 20072172.719 10 0 60930 54000.00000 0 -12143172.842 6435719.362 21499280.119 10 0 60930 54900.00000 0 -11400160.435 3824294.404 22509274.764 10 0 60930 55800.00000 0 -10837524.918 1069243.575 23082738.376 10 0 60930 56700.00000 0 -10478332.564 -1762552.294 23208713.876 10 0 60930 57600.00000 0 -10333547.678 -4600854.449 22884903.560 10 0 60930 58500.00000 0 -10401604.821 -7374738.810 22117702.100 10 0 60930 59400.00000 0 -10668522.721 -10015296.760 20922064.657 10 0 60930 60300.00000 0 -11108554.120 -12458253.794 19321213.160 10 0 60930 61200.00000 0 -11685343.679 -14646399.187 17346186.567 10 0 60930 62100.00000 0 -12353545.276 -16531727.724 15035243.514 10 0 60930 63000.00000 0 -13060831.058 -18077206.282 12433128.265 10 0 60930 63900.00000 0 -13750208.452 -19258093.290 9590213.348 10 0 60930 64800.00000 0 -14362548.495 -20062757.359 6561534.442 10 0 60930 65700.00000 0 -14839219.937 -20492961.792 3405735.148 10 0 60930 66600.00000 0 -15124718.873 -20563603.595 183941.131 10 0 60930 67500.00000 0 -15169183.560 -20301918.103 -3041415.391 10 0 60930 68400.00000 0 -14930688.485 -19746182.420 -6207798.736 10 0 60930 69300.00000 0 -14377220.586 -18943971.798 -9253777.478 10 0 60930 70200.00000 0 -13488253.480 -17950041.763 -12120213.676 10 0 60930 71100.00000 0 -12255852.022 -16823924.551 -14751410.622 10 0 60930 72000.00000 0 -10685258.988 -15627340.559 -17096196.683 10 0 60930 72900.00000 0 -8794937.115 -14421533.441 -19108924.068 10 0 60930 73800.00000 0 -6616062.435 -13264640.832 -20750362.770 10 0 60930 74700.00000 0 -4191487.842 -12209211.454 -21988471.918 10 0 60930 75600.00000 0 -1574217.968 -11299973.324 -22799033.074 10 0 60930 76500.00000 0 1174542.931 -10571947.444 -23166132.572 10 0 60930 77400.00000 0 3987690.271 -10048986.948 -23082482.830 10 0 60930 78300.00000 0 6794771.073 -9742803.904 -22549575.648 10 0 60930 79200.00000 0 9524682.999 -9652525.420 -21577663.661 10 0 60930 80100.00000 0 12108408.445 -9764798.435 -20185569.481 10 0 60930 81000.00000 0 14481669.732 -10054439.235 -18400325.486 10 0 60930 81900.00000 0 16587394.488 -10485600.555 -16256650.596 10 0 60930 82800.00000 0 18377887.834 -11013406.911 -13796273.826 10 0 60930 83700.00000 0 19816620.271 -11585988.654 -11067117.681 10 0 60930 84600.00000 0 20879556.226 -12146827.963 -8122357.479 10 0 60930 85500.00000 0 21555967.668 -12637316.397 -5019375.556 10 0 60931 0.00000 0 21848699.135 -12999414.429 -1818631.932 10 0 60931 900.00000 0 21773874.069 -13178299.027 1417527.138 10 0 60931 1800.00000 0 21360055.874 -13124885.326 4626093.803 10 0 60931 2700.00000 0 20646901.242 -12798115.021 7744636.993 10 0 60931 3600.00000 0 19683363.898 -12166913.154 10712524.889 10 0 60931 4500.00000 0 18525526.627 -11211730.116 13472108.427 10 0 60931 5400.00000 0 17234154.594 -9925603.452 15969841.932 10 0 60931 6300.00000 0 15872074.411 -8314694.666 18157319.007 10 0 60931 7200.00000 0 14501490.117 -6398278.656 19992203.874 10 0 60931 8100.00000 0 13181349.235 -4208186.515 21439040.905 10 0 60931 9000.00000 0 11964869.181 -1787725.240 22469927.831 10 0 60931 9900.00000 0 10897326.967 809880.381 23065040.954 10 0 60931 10800.00000 0 10014203.461 3523458.968 23213003.720 10 0 60931 11700.00000 0 9339758.307 6286195.311 22911092.951 10 0 60931 12600.00000 0 8886093.351 9028169.852 22165279.972 10 0 60931 13500.00000 0 8652742.079 11679030.677 20990106.787 10 0 60931 14400.00000 0 8626800.724 14170688.664 19408400.199 10 0 60931 15300.00000 0 8783594.427 16439925.574 17450829.562 10 0 60931 16200.00000 0 9087849.797 18430808.557 15155316.432 10 0 60931 17100.00000 0 9495324.412 20096812.447 12566306.913 10 0 60931 18000.00000 0 9954824.975 21402562.990 9733919.973 10 0 60931 18900.00000 0 10410529.692 22325129.638 6712987.173 10 0 60931 19800.00000 0 10804517.751 22854814.823 3562001.386 10 0 60931 20700.00000 0 11079399.991 22995407.228 341993.905 10 0 60931 21600.00000 0 11180940.298 22763888.594 -2884639.158 10 0 60931 22500.00000 0 11060557.427 22189606.174 -6055339.120 10 0 60931 23400.00000 0 10677601.518 21312945.117 -9108592.753 10 0 60931 24300.00000 0 10001308.628 20183555.919 -11985122.918 10 0 60931 25200.00000 0 9012349.822 18858210.750 -14629038.860 10 0 60931 26100.00000 0 7703907.951 17398378.063 -16988923.679 10 0 60931 27000.00000 0 6082234.891 15867616.891 -19018837.734 10 0 60931 27900.00000 0 4166663.554 14328899.890 -20679218.169 10 0 60931 28800.00000 0 1989071.787 12841977.423 -21937656.673 10 0 60931 29700.00000 0 -407181.788 11460893.376 -22769539.880 10 0 60931 30600.00000 0 -2968807.754 10231757.240 -23158539.376 10 0 60931 31500.00000 0 -5634558.897 9190866.358 -23096941.097 10 0 60931 32400.00000 0 -8337545.474 8363257.663 -22585806.959 10 0 60931 33300.00000 0 -11007797.347 7761750.191 -21634964.752 10 0 60931 34200.00000 0 -13574966.737 7386519.078 -20262825.665 10 0 60931 35100.00000 0 -15971059.153 7225219.219 -18496032.218 10 0 60931 36000.00000 0 -18133078.313 7253653.427 -16368942.795 10 0 60931 36900.00000 0 -20005474.210 7436956.702 -13922962.395 10 0 60931 37800.00000 0 -21542291.404 7731246.053 -11205732.494 10 0 60931 38700.00000 0 -22708927.136 8085665.270 -8270195.970 10 0 60931 39600.00000 0 -23483425.277 8444736.939 -5173555.916 10 0 60931 40500.00000 0 -23857251.862 8750920.704 -1976149.518 10 0 60931 41400.00000 0 -23835520.095 8947267.837 1259739.897 10 0 60931 42300.00000 0 -23436656.291 8980058.064 4471108.112 10 0 60931 43200.00000 0 -22691522.134 8801305.516 7595467.339 10 0 60931 44100.00000 0 -21642031.860 8371026.433 10572070.278 10 0 60931 45000.00000 0 -20339324.336 7659171.835 13343096.067 10 0 60931 45900.00000 0 -18841568.727 6647142.931 15854774.461 10 0 60931 46800.00000 0 -17211497.528 5328825.126 18058426.262 10 0 60931 47700.00000 0 -15513771.721 3711097.156 19911400.099 10 0 60931 48600.00000 0 -13812289.223 1813794.165 21377888.195 10 0 60931 49500.00000 0 -12167549.392 -330873.500 22429606.453 10 0 60931 50400.00000 0 -10634183.340 -2679421.314 23046327.088 10 0 60931 51300.00000 0 -9258752.138 -5178665.518 23216254.996 10 0 60931 52200.00000 0 -8077903.338 -7767706.761 22936242.019 10 0 60931 53100.00000 0 -7116960.956 -10380240.557 22211836.195 10 0 60931 54000.00000 0 -6389005.854 -12947099.594 21057165.993 10 0 60931 54900.00000 0 -5894483.056 -15398923.598 19494662.293 10 0 60931 55800.00000 0 -5621350.847 -17668847.361 17554623.644 10 0 60931 56700.00000 0 -5545764.152 -19695096.878 15274632.958 10 0 60931 57600.00000 0 -5633262.749 -21423387.226 12698836.291 10 0 60931 58500.00000 0 -5840414.146 -22809023.806 9877096.885 10 0 60931 59400.00000 0 -6116842.066 -23818620.553 6864039.804 10 0 60931 60300.00000 0 -6407555.576 -24431364.279 3718004.656 10 0 60931 61200.00000 0 -6655481.172 -24639772.741 499925.692 10 0 60931 62100.00000 0 -6804091.536 -24449914.842 -2727839.846 10 0 60931 63000.00000 0 -6800020.363 -23881083.453 -5902713.132 10 0 60931 63900.00000 0 -6595552.890 -22964934.049 -8963102.042 10 0 60931 64800.00000 0 -6150886.660 -21744124.547 -11849593.208 10 0 60931 65700.00000 0 -5436066.280 -20270512.573 -14506104.772 10 0 60931 66600.00000 0 -4432509.344 -18602984.971 -16880977.424 10 0 60931 67500.00000 0 -3134057.521 -16805009.857 -18927982.340 10 0 60931 68400.00000 0 -1547506.523 -14942013.251 -20607226.186 10 0 60931 69300.00000 0 307409.624 -13078689.891 -21885935.178 10 0 60931 70200.00000 0 2398581.750 -11276360.678 -22739102.509 10 0 60931 71100.00000 0 4682614.962 -9590487.471 -23149985.970 10 0 60931 72000.00000 0 7106400.892 -8068449.508 -23110445.419 10 0 60931 72900.00000 0 9609108.923 -6747674.875 -22621112.771 10 0 60931 73800.00000 0 12124514.666 -5654205.645 -21691390.364 10 0 60931 74700.00000 0 14583569.372 -4801757.155 -20339276.909 10 0 60931 75600.00000 0 16917103.427 -4191311.051 -18591023.599 10 0 60931 76500.00000 0 19058550.995 -3811259.137 -16480626.421 10 0 60931 77400.00000 0 20946581.477 -3638091.646 -14049164.108 10 0 60931 78300.00000 0 22527527.063 -3637600.266 -11343994.481 10 0 60931 79200.00000 0 23757504.010 -3766544.132 -8417825.007 10 0 60931 80100.00000 0 24604138.049 -3974707.096 -5327676.267 10 0 60931 81000.00000 0 25047821.144 -4207257.675 -2133759.429 10 0 60931 81900.00000 0 25082446.816 -4407310.019 1101709.264 10 0 60931 82800.00000 0 24715593.545 -4518575.700 4315732.485 10 0 60931 83700.00000 0 23968149.431 -4487992.281 7445769.121 10 0 60931 84600.00000 0 22873395.186 -4268215.912 10430959.514 10 0 60931 85500.00000 0 21475585.548 -3819871.341 13213313.779 10 0 60932 0.00000 0 19828090.532 -3113463.494 15738839.254 10 0 60932 900.00000 0 17991175.190 -2130869.153 17958586.343 10 0 60932 1800.00000 0 16029514.517 -866346.734 19829589.356 10 0 60932 2700.00000 0 14009545.494 672979.312 21315689.448 10 0 60932 3600.00000 0 11996769.446 2467178.759 22388221.364 10 0 60932 4500.00000 0 10053116.292 4484118.017 23026553.488 10 0 60932 5400.00000 0 8234479.861 6680579.414 23218472.000 10 0 60932 6300.00000 0 6588525.642 9003850.825 22960403.176 10 0 60932 7200.00000 0 5152860.536 11393719.850 22257470.761 10 0 60932 8100.00000 0 3953638.843 13784790.391 21123388.283 10 0 60932 9000.00000 0 3004660.538 16109026.378 19580188.925 10 0 60932 9900.00000 0 2306997.539 18298418.194 17657798.342 10 0 60932 10800.00000 0 1849161.930 20287662.359 15393458.453 10 0 60932 11700.00000 0 1607807.817 22016744.448 12831012.726 10 0 60932 12600.00000 0 1548936.641 23433318.983 10020065.991 10 0 60932 13500.00000 0 1629554.917 24494788.200 7015034.049 10 0 60932 14400.00000 0 1799714.736 25169993.722 3874100.412 10 0 60932 15300.00000 0 2004851.343 25440450.856 658099.469 10 0 60932 16200.00000 0 2188319.636 25301073.909 -2570653.175 10 0 60932 17100.00000 0 2294022.890 24760361.833 -5749561.197 10 0 60932 18000.00000 0 2269022.916 23840035.759 -8816956.066 10 0 60932 18900.00000 0 2066021.302 22574142.738 -11713290.411 10 0 60932 19800.00000 0 1645606.481 21007662.204 -14382293.254 10 0 60932 20700.00000 0 978170.839 19194672.557 -16772064.564 10 0 60932 21600.00000 0 45415.694 17196153.596 -18836087.751 10 0 60932 22500.00000 0 -1158621.067 15077516.017 -20534140.149 10 0 60932 23400.00000 0 -2627059.973 12905960.661 -21833083.400 10 0 60932 24300.00000 0 -4340221.086 10747777.541 -22707517.899 10 0 60932 25200.00000 0 -6266211.888 8665697.326 -23140288.025 10 0 60932 26100.00000 0 -8362039.516 6716406.005 -23122827.640 10 0 60932 27000.00000 0 -10575202.793 4948326.732 -22655338.391 10 0 60932 27900.00000 0 -12845699.126 3399761.801 -21746796.513 10 0 60932 28800.00000 0 -15108363.452 2097472.709 -20414787.170 10 0 60932 29700.00000 0 -17295442.135 1055757.871 -18685168.763 10 0 60932 30600.00000 0 -19339294.298 276066.564 -16591573.053 10 0 60932 31500.00000 0 -21175107.214 -252835.040 -14174750.397 10 0 60932 32400.00000 0 -22743511.380 -554153.392 -11481772.652 10 0 60932 33300.00000 0 -23992984.824 -661843.647 -8565109.450 10 0 60932 34200.00000 0 -24881944.844 -618925.232 -5481596.400 10 0 60932 35100.00000 0 -25380438.601 -475409.803 -2291316.180 10 0 60932 36000.00000 0 -25471361.074 -285931.010 943584.490 10 0 60932 36900.00000 0 -25151149.096 -107178.361 4160117.609 10 0 60932 37800.00000 0 -24429922.696 4754.288 7295691.150 10 0 60932 38700.00000 0 -23331068.621 -3008.316 10289335.495 10 0 60932 39600.00000 0 -21890284.751 -177640.830 13082894.092 10 0 60932 40500.00000 0 -20154126.927 -558382.207 15622154.570 10 0 60932 41400.00000 0 -18178120.580 -1174642.451 17857898.147 10 0 60932 42300.00000 0 -16024517.595 -2044531.257 19746847.205 10 0 60932 43200.00000 0 -13759793.177 -3173870.340 21252493.464 10 0 60932 44100.00000 0 -11451987.776 -4555730.652 22345791.797 10 0 60932 45000.00000 0 -9168004.868 -6170513.516 23005707.648 10 0 60932 45900.00000 0 -6970976.536 -7986571.989 23219608.975 10 0 60932 46800.00000 0 -4917805.232 -9961346.435 22983496.574 10 0 60932 47700.00000 0 -3056982.389 -12042967.098 22302069.598 10 0 60932 48600.00000 0 -1426772.590 -14172257.426 21188625.966 10 0 60932 49500.00000 0 -53836.724 -16285055.560 19664800.148 10 0 60932 50400.00000 0 1047650.606 -18314758.402 17760143.568 10 0 60932 51300.00000 0 1876354.572 -20194983.613 15511555.509 10 0 60932 52200.00000 0 2443591.340 -21862239.976 12962574.927 10 0 60932 53100.00000 0 2772606.103 -23258496.022 10162546.074 10 0 60932 54000.00000 0 2897348.958 -24333540.826 7165673.119 10 0 60932 54900.00000 0 2860800.387 -25047039.138 4029980.969 10 0 60932 55800.00000 0 2712916.762 -25370195.296 816201.533 10 0 60932 56700.00000 0 2508282.221 -25286956.323 -2413393.896 10 0 60932 57600.00000 0 2303565.613 -24794703.433 -5596194.216 10 0 60932 58500.00000 0 2154889.610 -23904402.183 -8670457.208 10 0 60932 59400.00000 0 2115222.999 -22640204.007 -11576504.232 10 0 60932 60300.00000 0 2231906.500 -21038514.550 -14257877.865 10 0 60932 61200.00000 0 2544417.160 -19146566.561 -16662439.935 10 0 60932 62100.00000 0 3082466.655 -17020555.795 -18743388.489 10 0 60932 63000.00000 0 3864515.050 -14723416.719 -20460173.669 10 0 60932 63900.00000 0 4896764.373 -12322330.044 -21779294.324 10 0 60932 64800.00000 0 6172676.336 -9886065.444 -22674959.410 10 0 60932 65700.00000 0 7673036.628 -7482269.879 -23129600.775 10 0 60932 66600.00000 0 9366565.263 -5174814.471 -23134226.678 10 0 60932 67500.00000 0 11211049.370 -3021310.567 -22688608.402 10 0 60932 68400.00000 0 13154952.742 -1070898.746 -21801295.531 10 0 60932 69300.00000 0 15139436.033 637596.727 -20489458.719 10 0 60932 70200.00000 0 17100703.817 2077070.768 -18778562.213 10 0 60932 71100.00000 0 18972580.563 3233038.995 -16701871.814 10 0 60932 72000.00000 0 20689207.327 4104000.386 -14299807.393 10 0 60932 72900.00000 0 22187745.485 4701246.440 -11619152.383 10 0 60932 73800.00000 0 23410973.148 5048125.822 -8712135.797 10 0 60932 74700.00000 0 24309664.094 5178796.783 -5635405.194 10 0 60932 75600.00000 0 24844648.235 5136521.636 -2448911.499 10 0 60932 76500.00000 0 24988466.121 4971577.231 785271.473 10 0 60932 77400.00000 0 24726547.371 4738871.826 4004168.400 10 0 60932 78300.00000 0 24057863.357 4495371.213 7145139.574 10 0 60932 79200.00000 0 22995027.071 4297444.905 10147108.419 10 0 60932 80100.00000 0 21563836.706 4198246.268 12951754.427 10 0 60932 81000.00000 0 19802283.204 4245238.565 15504647.671 10 0 60932 81900.00000 0 17759064.571 4477972.187 17756302.645 10 0 60932 82800.00000 0 15491670.366 4926207.149 19663131.221 10 0 60932 83700.00000 0 13064117.425 5608459.855 21188276.971 10 0 60932 84600.00000 0 10544431.878 6531034.856 22302315.829 10 0 60932 85500.00000 0 8001982.562 7687581.750 22983810.870 10 0 60933 0.00000 0 5504776.534 9059195.111 23219712.003 10 0 60933 900.00000 0 3116826.820 10615053.665 23005594.346 10 0 60933 1800.00000 0 895703.584 12313569.995 22345731.732 10 0 60933 2700.00000 0 -1109635.879 14104005.389 21253005.329 10 0 60933 3600.00000 0 -2860646.918 15928481.225 19748649.313 10 0 60933 4500.00000 0 -4330555.740 17724304.510 17861838.892 10 0 60933 5400.00000 0 -5505221.375 19426511.555 15629128.385 10 0 60933 6300.00000 0 -6383467.273 20970524.816 13093749.645 10 0 60933 7200.00000 0 -6976870.157 22294813.165 10304783.581 10 0 60933 8100.00000 0 -7309016.006 23343445.464 7316219.839 10 0 60933 9000.00000 0 -7414255.046 24068431.453 4185921.790 10 0 60933 9900.00000 0 -7336008.256 24431752.384 974515.936 10 0 60933 10800.00000 0 -7124696.624 24406996.393 -2255773.631 10 0 60933 11700.00000 0 -6835380.192 23980529.685 -5442323.804 10 0 60933 12600.00000 0 -6525206.157 23152153.629 -8523321.309 10 0 60933 13500.00000 0 -6250773.570 21935219.122 -11438958.650 10 0 60933 14400.00000 0 -6065525.852 20356192.012 -14132594.130 10 0 60933 15300.00000 0 -6017281.502 18453686.280 -16551853.331 10 0 60933 16200.00000 0 -6146007.820 16277003.865 -18649650.528 10 0 60933 17100.00000 0 -6481932.535 13884240.686 -20385109.982 10 0 60933 18000.00000 0 -7044074.246 11340036.670 -21724368.769 10 0 60933 18900.00000 0 -7839255.212 8713062.602 -22641245.149 10 0 60933 19800.00000 0 -8861639.841 6073347.773 -23117758.879 10 0 60933 20700.00000 0 -10092820.226 3489559.333 -23144492.724 10 0 60933 21600.00000 0 -11502447.013 1026346.448 -22720787.363 10 0 60933 22500.00000 0 -13049380.839 -1258140.112 -21854765.085 10 0 60933 23400.00000 0 -14683317.398 -3314449.406 -20563180.964 10 0 60933 24300.00000 0 -16346818.936 -5103660.828 -18871103.610 10 0 60933 25200.00000 0 -17977667.393 -6598767.127 -16811430.997 10 0 60933 26100.00000 0 -19511440.367 -7785552.241 -14424250.330 10 0 60933 27000.00000 0 -20884201.214 -8662927.549 -11756054.200 10 0 60933 27900.00000 0 -22035189.305 -9242713.208 -8858828.423 10 0 60933 28800.00000 0 -22909396.174 -9548874.911 -5789029.862 10 0 60933 29700.00000 0 -23459917.901 -9616249.753 -2606475.015 10 0 60933 30600.00000 0 -23649983.582 -9488816.801 626837.872 10 0 60933 31500.00000 0 -23454573.551 -9217587.437 3847948.799 10 0 60933 32400.00000 0 -22861558.709 -8858206.808 6994172.982 10 0 60933 33300.00000 0 -21872312.879 -8468369.817 10004329.443 10 0 60933 34200.00000 0 -20501772.780 -8105162.728 12819936.189 10 0 60933 35100.00000 0 -18777943.762 -7822444.176 15386348.072 10 0 60933 36000.00000 0 -16740872.921 -7668377.138 17653815.016 10 0 60933 36900.00000 0 -14441133.623 -7683216.463 19578440.261 10 0 60933 37800.00000 0 -11937885.638 -7897445.143 21123020.799 10 0 60933 38700.00000 0 -9296592.447 -8330337.340 22257754.817 10 0 60933 39600.00000 0 -6586491.038 -8989007.861 22960803.815 10 0 60933 40500.00000 0 -3877919.149 -9867987.170 23218700.050 10 0 60933 41400.00000 0 -1239610.151 -10949339.034 23026592.872 10 0 60933 42300.00000 0 1263933.369 -12203315.344 22388330.505 10 0 60933 43200.00000 0 3574880.110 -13589520.514 21316376.656 10 0 60933 44100.00000 0 5644225.330 -15058536.943 19831564.172 10 0 60933 45000.00000 0 7433573.499 -16553944.105 17962690.704 10 0 60933 45900.00000 0 8916476.334 -18014647.698 15745963.967 10 0 60933 46800.00000 0 10079272.440 -19377422.496 13224306.775 10 0 60933 47700.00000 0 10921395.158 -20579563.627 10446534.463 10 0 60933 48600.00000 0 11455137.020 -21561536.317 7466419.675 10 0 60933 49500.00000 0 11704881.539 -22269513.964 4341661.544 10 0 60933 50400.00000 0 11705834.986 -22657698.659 1132778.311 10 0 60933 51300.00000 0 11502311.598 -22690326.947 -2098056.055 10 0 60933 52200.00000 0 11145644.217 -22343276.386 -5288209.394 10 0 60933 53100.00000 0 10691808.142 -21605204.708 -8375800.269 10 0 60933 54000.00000 0 10198858.102 -20478172.656 -11300895.142 10 0 60933 54900.00000 0 9724286.296 -18977722.876 -14006670.721 10 0 60933 55800.00000 0 9322412.989 -17132409.878 -16440518.837 10 0 60933 56700.00000 0 9041920.051 -14982798.916 -18555072.276 10 0 60933 57600.00000 0 8923632.034 -12579973.858 -20309131.397 10 0 60933 58500.00000 0 8998639.253 -9983614.707 -21668473.135 10 0 60933 59400.00000 0 9286843.127 -7259723.543 -22606526.255 10 0 60933 60300.00000 0 9795986.480 -4478092.479 -23104899.177 10 0 60933 61200.00000 0 10521211.163 -1709618.307 -23153749.449 10 0 60933 62100.00000 0 11445163.249 976424.903 -22751986.946 10 0 60933 63000.00000 0 12538642.909 3515041.940 -21907306.016 10 0 60933 63900.00000 0 13761772.976 5847990.663 -20636045.094 10 0 60933 64800.00000 0 15065638.078 7925971.052 -18962875.710 10 0 60933 65700.00000 0 16394325.988 9710437.643 -16920326.211 10 0 60933 66600.00000 0 17687285.433 11174959.516 -14548148.995 10 0 60933 67500.00000 0 18881900.748 12306071.158 -11892543.350 10 0 60933 68400.00000 0 19916174.177 13103578.999 -9005249.148 10 0 60933 69300.00000 0 20731401.674 13580311.635 -5942529.563 10 0 60933 70200.00000 0 21274728.122 13761325.562 -2764063.491 10 0 60933 71100.00000 0 21501472.918 13682601.527 468229.639 10 0 60933 72000.00000 0 21377126.693 13389288.465 3691408.378 10 0 60933 72900.00000 0 20878934.094 12933571.279 6842745.973 10 0 60933 73800.00000 0 19996995.444 12372254.652 9860959.941 10 0 60933 74700.00000 0 18734840.776 11764166.923 12687409.416 10 0 60933 75600.00000 0 17109452.405 11167495.324 15267236.343 10 0 60933 76500.00000 0 15150735.639 10637166.194 17550428.054 10 0 60933 77400.00000 0 12900460.540 10222381.342 19492780.820 10 0 60933 78300.00000 0 10410719.739 9964414.408 21056746.393 10 0 60933 79200.00000 0 7741967.193 9894759.564 22212146.234 10 0 60933 80100.00000 0 4960719.900 10033709.572 22936740.954 10 0 60933 81000.00000 0 2137017.983 10389421.876 23216645.471 10 0 60933 81900.00000 0 -658252.017 10957510.810 23046583.334 10 0 60933 82800.00000 0 -3356060.657 11721182.070 22429976.593 10 0 60933 83700.00000 0 -5891855.312 12651903.117 21378870.501 10 0 60933 84600.00000 0 -8207989.336 13710581.134 19913695.116 10 0 60933 85500.00000 0 -10255861.855 14849199.285 18062868.621 99